WD9EKA Weather Reports


Display with metric or nautical units.
time (UTC)temp
F
wind
direction
speed
MPH
gust
MPH
rain 1hr
in
rain 24hr
in
rain mn
in
humidity
%
barometer
mb
20260502213243 55 254 2.0 3.0 0.00 0.00 0.00 41 1013.5
20260502212723 56 37 1.0 3.0 0.00 0.00 0.00 38 1013.5
20260502212205 55 76 2.0 3.0 0.00 0.00 0.00 41 1013.5
20260502211633 55 5 4.0 5.0 0.00 0.00 0.00 40 1013.6
20260502211107 55 123 2.0 2.0 0.00 0.00 0.00 39 1013.5
20260502210547 55 252 3.0 5.0 0.00 0.00 0.00 38 1013.5
20260502210027 55 103 5.0 8.0 0.00 0.00 0.00 38 1013.4
20260502205507 54 50 2.0 3.0 0.00 0.00 0.00 42 1013.7
20260502204947 55 181 1.0 2.0 0.00 0.00 0.00 41 1013.7
20260502204427 54 47 2.0 5.0 0.00 0.00 0.00 43 1013.6
20260502203907 55 20 4.0 4.0 0.00 0.00 0.00 41 1013.6
20260502203347 54 246 1.0 2.0 0.00 0.00 0.00 42 1013.7
20260502202827 54 337 3.0 4.0 0.00 0.00 0.00 39 1013.8
20260502202307 55 260 4.0 6.0 0.00 0.00 0.00 36 1013.7
20260502201747 55 71 2.0 4.0 0.00 0.00 0.00 38 1013.8
20260502201227 54 341 2.0 3.0 0.00 0.00 0.00 43 1013.9
20260502200707 54 281 1.0 2.0 0.00 0.00 0.00 41 1013.9
20260502200147 55 231 0.0 1.0 0.00 0.00 0.00 39 1013.7
20260502195627 56 117 4.0 6.0 0.00 0.00 0.00 40 1014.0
20260502195107 57 264 2.0 3.0 0.00 0.00 0.00 46 1013.9
20260502194547 56 134 0.0 2.0 0.00 0.00 0.00 38 1013.8
20260502194027 55 188 2.0 3.0 0.00 0.00 0.00 41 1013.8
20260502193507 56 91 1.0 2.0 0.00 0.00 0.00 43 1014.0
20260502192947 56 311 3.0 4.0 0.00 0.00 0.00 43 1014.1
20260502192427 57 63 4.0 6.0 0.00 0.00 0.00 42 1013.9
20260502191907 54 179 0.0 1.0 0.00 0.00 0.00 44 1014.1
20260502191347 54 53 1.0 2.0 0.00 0.00 0.00 43 1014.2
20260502190827 55 158 5.0 6.0 0.00 0.00 0.00 45 1014.0
20260502190307 56 245 0.0 2.0 0.00 0.00 0.00 40 1014.3
20260502185747 55 29 2.0 2.0 0.00 0.00 0.00 45 1014.1
20260502185227 54 103 3.0 3.0 0.00 0.00 0.00 44 1014.2
20260502184707 56 31 2.0 3.0 0.00 0.00 0.00 46 1014.1
20260502184147 55 349 4.0 6.0 0.00 0.00 0.00 44 1014.2
20260502183627 55 36 3.0 4.0 0.00 0.00 0.00 41 1014.2
20260502183107 55 94 2.0 3.0 0.00 0.00 0.00 42 1014.2
20260502182547 56 222 2.0 3.0 0.00 0.00 0.00 46 1014.1
20260502182027 55 200 2.0 3.0 0.00 0.00 0.00 52 1014.2
20260502181507 54 264 2.0 4.0 0.00 0.00 0.00 45 1014.3
20260502180947 54 269 1.0 2.0 0.00 0.00 0.00 45 1014.4
20260502180427 55 97 2.0 4.0 0.00 0.00 0.00 42 1014.3
20260502163907 53 78 1.0 2.0 0.00 0.00 0.00 51 1015.1
20260502163347 53 37 2.0 3.0 0.00 0.00 0.00 50 1015.2
20260502162833 54 330 2.0 4.0 0.00 0.00 0.00 49 1015.1
20260502162233 53 37 0.0 1.0 0.00 0.00 0.00 51 1015.2
20260502161633 52 270 2.0 3.0 0.00 0.00 0.00 53 1015.2
20260502161033 52 245 4.0 6.0 0.00 0.00 0.00 52 1015.3
20260502160433 52 118 1.0 2.0 0.00 0.00 0.00 54 1015.4
20260502152333 51 91 0.0 0.0 0.00 0.00 0.00 59 1015.4
20260502151733 51 108 0.0 1.0 0.00 0.00 0.00 54 1015.2
20260502151233 51 141 2.0 4.0 0.00 0.00 0.00 55 1015.3
20260502150633 51 14 1.0 2.0 0.00 0.00 0.00 53 1015.2
20260502130633 45 114 2.0 4.0 0.00 0.00 0.00 72 1014.9
20260502123633 43 92 2.0 3.0 0.00 0.00 0.00 80 1014.8
20260502123033 43 67 0.0 2.0 0.00 0.00 0.00 84 1014.7
20260502122433 42 107 1.0 2.0 0.00 0.00 0.00 84 1014.7
20260502121233 41 34 2.0 2.0 0.00 0.00 0.00 87 1014.8
20260502120633 41 115 0.0 0.0 0.00 0.00 0.00 88 1014.7
20260502115433 40 88 1.0 2.0 0.00 0.00 0.00 91 1014.1
20260502114833 40 101 0.0 0.0 0.00 0.00 0.00 92 1014.2
20260502114233 40 108 1.0 2.0 0.00 0.00 0.00 93 1014.0
20260502113633 40 185 0.0 0.0 0.00 0.00 0.00 94 1014.2
20260502113033 39 223 0.0 0.0 0.00 0.00 0.00 93 1013.8
20260502112433 39 223 0.0 0.0 0.00 0.00 0.00 93 1014.0
20260502111833 39 223 0.0 0.0 0.00 0.00 0.00 92 1014.3
20260502111233 39 224 0.0 0.0 0.00 0.00 0.00 92 1013.7
20260502110633 39 223 0.0 0.0 0.00 0.00 0.00 92 1014.1
20260502105433 39 50 0.0 1.0 0.00 0.00 0.00 92 1013.7
20260502104916 40 35 1.0 2.0 0.00 0.00 0.00 92 1013.4
20260502104356 40 103 0.0 2.0 0.00 0.00 0.00 92 1013.2
20260502103836 41 56 0.0 0.0 0.00 0.00 0.00 92 1013.5
20260502103333 41 57 0.0 0.0 0.00 0.00 0.00 92 1013.7
20260502102733 41 81 0.0 1.0 0.00 0.00 0.00 92 1013.5
20260502101533 41 69 0.0 0.0 0.00 0.00 0.00 92 1013.7
20260502100933 41 95 0.0 2.0 0.00 0.00 0.00 92 1013.7
20260502100333 41 49 0.0 1.0 0.00 0.00 0.00 92 1013.7
20260502091133 43 75 0.0 1.0 0.00 0.00 0.00 89 1013.5
20260502090633 43 75 0.0 0.0 0.00 0.00 0.00 89 1013.5
20260502071348 43 75 0.0 0.0 0.00 0.07 0.00 99 1013.2
20260502070308 42 75 0.0 0.0 0.00 0.07 0.00 99 1013.0
20260502065748 42 75 0.0 0.0 0.00 0.07 0.00 99 1013.2
20260502065228 42 75 0.0 0.0 0.00 0.07 0.00 99 1013.2
20260502064708 42 75 0.0 0.0 0.00 0.07 0.00 99 1013.1
20260502064148 42 75 0.0 0.0 0.00 0.07 0.00 99 1013.2
20260502063628 43 75 0.0 0.0 0.00 0.07 0.00 99 1013.0
20260502063108 43 75 0.0 0.0 0.00 0.07 0.00 99 1013.2
20260502062548 43 75 0.0 0.0 0.00 0.07 0.00 99 1013.2
20260502062028 42 75 0.0 0.0 0.00 0.07 0.00 99 1013.2
20260502061508 43 75 0.0 0.0 0.00 0.07 0.00 99 1013.1
20260502060948 43 75 0.0 0.0 0.00 0.07 0.00 99 1013.3
20260502060433 43 75 0.0 0.0 0.00 0.07 0.00 99 1013.4
20260502055833 43 75 0.0 0.0 0.00 0.07 0.00 99 1013.1
20260502055233 44 75 0.0 0.0 0.00 0.07 0.00 99 1013.3
20260502054633 44 75 0.0 0.0 0.00 0.07 0.00 99 1013.3
20260502054033 44 75 0.0 0.0 0.00 0.07 0.00 99 1013.3
20260502051634 44 75 0.0 0.0 0.00 0.07 0.00 99 1013.3
20260502051034 44 75 0.0 0.0 0.00 0.07 0.00 99 1013.4
20260502050433 45 75 0.0 0.0 0.00 0.07 0.00 99 1013.4
20260502045833 45 75 0.0 0.0 0.00 0.07 0.07 99 1013.7
20260502045233 45 75 0.0 0.0 0.00 0.07 0.07 99 1013.5
20260502044633 44 75 0.0 0.0 0.00 0.07 0.07 99 1013.6
20260502044033 44 75 0.0 0.0 0.00 0.07 0.07 99 1013.4
20260502043433 44 75 0.0 0.0 0.00 0.07 0.07 99 1013.6
20260502042834 44 75 0.0 0.0 0.00 0.07 0.07 99 1013.3
20260502042234 44 75 0.0 0.0 0.00 0.07 0.07 99 1013.4
20260502041633 44 75 0.0 0.0 0.00 0.07 0.07 99 1013.4
20260502041034 44 75 0.0 0.0 0.00 0.07 0.07 99 1013.4
20260502040433 44 75 0.0 0.0 0.00 0.07 0.07 99 1013.6
20260502035833 44 75 0.0 0.0 0.00 0.07 0.07 99 1013.6
20260502035316 44 75 0.0 0.0 0.00 0.07 0.07 99 1013.4
20260502034134 44 75 0.0 0.0 0.00 0.07 0.07 99 1013.5
20260502033533 45 75 0.0 0.0 0.00 0.07 0.07 99 1013.5
20260502033020 44 75 0.0 0.0 0.00 0.07 0.07 99 1013.6
20260502032500 44 75 0.0 0.0 0.00 0.07 0.07 99 1013.5
20260502031940 44 75 0.0 0.0 0.00 0.07 0.07 99 1013.5
20260502031434 44 75 0.0 0.0 0.00 0.07 0.07 99 1013.5
20260502030833 44 75 0.0 0.0 0.00 0.07 0.07 99 1013.6
20260502030233 44 75 0.0 0.0 0.00 0.07 0.07 99 1013.3
20260502025636 44 75 0.0 0.0 0.00 0.07 0.07 99 1013.3
20260502025033 44 75 0.0 0.0 0.00 0.07 0.07 98 1013.4
20260502024434 44 75 0.0 0.0 0.00 0.07 0.07 98 1013.4
20260502023833 43 75 0.0 0.0 0.00 0.07 0.07 98 1013.6
20260502023316 43 75 0.0 0.0 0.00 0.07 0.07 98 1013.5
20260502022756 42 75 0.0 0.0 0.00 0.07 0.07 98 1013.5
20260502022233 43 75 0.0 0.0 0.00 0.07 0.07 98 1013.4
20260502021633 42 75 0.0 0.0 0.00 0.07 0.07 97 1013.3
20260502021033 42 75 0.0 0.0 0.00 0.07 0.07 97 1013.2
20260502015833 43 75 0.0 0.0 0.00 0.07 0.07 96 1012.8
20260502015332 43 75 0.0 0.0 0.00 0.07 0.07 96 1012.9
20260502014812 43 75 0.0 0.0 0.00 0.07 0.07 95 1013.1
20260502013732 42 75 0.0 0.0 0.00 0.07 0.07 94 1012.9
20260502013212 43 75 0.0 0.0 0.00 0.07 0.07 94 1012.8
20260502011628 43 75 0.0 0.0 0.00 0.07 0.07 92 1012.3
20260502011108 43 75 0.0 0.0 0.00 0.07 0.07 91 1012.5
20260502010548 44 75 0.0 0.0 0.00 0.07 0.07 90 1012.2
20260502010033 44 75 0.0 0.0 0.00 0.07 0.07 89 1012.3
20260502005433 44 75 0.0 0.0 0.00 0.07 0.07 88 1012.1
20260502004916 45 75 0.0 0.0 0.00 0.07 0.07 87 1012.1
20260502004357 45 75 0.0 0.0 0.00 0.07 0.07 87 1012.0
20260502003833 46 75 0.0 0.0 0.00 0.07 0.07 85 1011.9
20260502003233 46 75 0.0 0.0 0.00 0.07 0.07 84 1011.9
20260502002724 47 75 0.0 0.0 0.00 0.07 0.07 83 1011.8
20260502002205 47 76 0.0 0.0 0.00 0.07 0.07 82 1011.8
20260502001645 48 75 0.0 1.0 0.00 0.07 0.07 81 1011.7
20260502001119 48 76 0.0 0.0 0.00 0.07 0.07 80 1011.8
20260502000548 49 12 1.0 1.0 0.00 0.07 0.07 78 1011.6
20260502000013 49 60 0.0 0.0 0.00 0.07 0.07 76 1011.8
20260501235452 50 96 1.0 2.0 0.00 0.07 0.07 75 1011.3
20260501234412 50 351 0.0 0.0 0.00 0.07 0.07 75 1011.3
20260501233852 50 39 3.0 4.0 0.00 0.07 0.07 74 1011.4
20260501233332 51 345 1.0 2.0 0.00 0.07 0.07 73 1011.4
20260501232813 52 177 4.0 8.0 0.00 0.07 0.07 67 1011.6
20260501232252 54 70 4.0 6.0 0.00 0.07 0.07 62 1011.5
20260501231732 55 292 3.0 4.0 0.00 0.07 0.07 59 1011.4
20260501231212 54 250 0.0 1.0 0.00 0.07 0.07 58 1011.4
20260501230652 54 292 0.0 0.0 0.00 0.07 0.07 57 1011.6
20260501230133 54 285 0.0 2.0 0.00 0.07 0.07 56 1011.8
20260501225612 54 244 1.0 1.0 0.00 0.07 0.07 59 1011.6
20260501225053 54 225 0.0 0.0 0.00 0.07 0.07 59 1011.7
20260501224533 54 244 0.0 0.0 0.00 0.07 0.07 62 1011.8
20260501224013 54 244 0.0 0.0 0.00 0.07 0.07 60 1011.8
20260501223453 54 243 0.0 0.0 0.00 0.07 0.07 60 1011.6
20260501222933 54 99 0.0 1.0 0.00 0.07 0.07 59 1011.6
20260501222413 54 230 0.0 0.0 0.00 0.07 0.07 60 1011.5
20260501221853 54 258 0.0 0.0 0.00 0.07 0.07 60 1011.6
20260501221332 54 162 0.0 1.0 0.00 0.07 0.07 61 1011.6
20260501220813 54 256 1.0 3.0 0.00 0.07 0.07 61 1011.6
20260501220253 54 84 1.0 2.0 0.00 0.07 0.07 59 1011.5
20260501215732 54 273 0.0 1.0 0.00 0.07 0.07 58 1011.5
20260501215213 54 257 1.0 3.0 0.00 0.07 0.07 59 1011.6
20260501214653 54 146 0.0 1.0 0.00 0.07 0.07 59 1011.9
20260501214133 55 51 0.0 1.0 0.00 0.07 0.07 58 1011.8